Location: Praha
(50.0830°N, 14.4670°E)
Time: 21:37:24
(UTC+02:00)

ISS - Pass Details

Date: 10 September 2019
Orbit: 411 x 421 km, 51.6° (Epoch: 19 September)

Event Time Altitude Azimuth Distance (km) Brightness Sun altitude
Exits shadow 03:10:03 15° 75° (ENE) 1,238 -0.8 -28.0°
Drops below altitude 10° 03:10:41 10° 77° (ENE) 1,492 -0.4 -28.0°
Sets 03:12:47 0° 79° (E) 2,357 0.7 -27.8°
